Regional Weather Roundup
Issued by NWS

Home | Current Version | Previous Version | Graphics & Text | Print | Product List | Glossary On
Versions: 1 2 3 4 5 6 7 8 9 10 11 12 13 14 15 16 17 18 19 20 21 22 23 24 25 26 27 28 29 30 31 32 33 34 35 36 37 38 39 40 41 42 43 44 45 46 47 48 49 50
000
ASUS43 KIND 310859
RWRIN

WEATHER ROUNDUP FOR INDIANA
NATIONAL WEATHER SERVICE INDIANAPOLIS IN
500 AM EDT TUE MAY 31 2016

NOTE: "FAIR" INDICATES FEW OR NO CLOUDS BELOW 12,000 FEET WITH NO
SIGNIFICANT WEATHER AND/OR OBSTRUCTIONS TO VISIBILITY.

* - STATION DOES NOT REPORT WEATHER SUCH AS PRECIPITATION OR FOG.

+ - STATION NOT QUALITY CONTROLLED BY THE NATIONAL WEATHER SERVICE.
    USE DATA WITH CAUTION...ESPECIALLY DEWPOINT AND RELATIVE
    HUMIDITY OBSERVATIONS.

INZ001>003-010>013-019-020-311000-
NORTHWEST INDIANA

CITY           SKY/WX    TMP DP  RH WIND       PRES   REMARKS
KNOX *+        CLEAR     59  54  82 N3        29.99F
MONTICELLO +   CLEAR     65  54  68 CALM      29.98S
RENSSELAER +   PTCLDY    66  59  77 NE8       29.98S

$$

LMZ046-743>745-311000-
SOUTHERN LAKE MICHIGAN

STATION/POSITION TIME  TEMP    WIND        PRES    WAVE
                       AIR SEA DIR/SP/G            HT
                 (UTC) (F)     (DEG/KT/KT) (MB)    (FT)
BURNS HARBOR     0801   67      60/  5/ 10 1016.3S
MICHIGAN CITY    0800   68      80/  4/  7   N/A
5NW MICH CITY    0800   63 62  180/  2/  4   N/A     0

$$

INZ004-005-014>016-021>024-311000-
NORTH CENTRAL INDIANA

CITY           SKY/WX    TMP DP  RH WIND       PRES   REMARKS
GOSHEN         CLEAR     57  54  89 CALM      30.00S
PERU/GRISSOM   PTCLDY    64  56  74 E3        29.97F
SOUTH BEND     CLEAR     60  55  83 SW3       30.01S

$$

INZ006>009-017-018-025>027-311000-
NORTHEAST INDIANA

CITY           SKY/WX    TMP DP  RH WIND       PRES   REMARKS
ANGOLA *+        N/A     59  55  88 CALM      30.01S
FORT WAYNE     MOCLDY    63  54  72 NE3       30.00S

$$

INZ028-029-035-036-043>045-051>053-311000-
WEST CENTRAL INDIANA

CITY           SKY/WX    TMP DP  RH WIND       PRES   REMARKS
CRAWFORDSVL +  CLOUDY    60  60 100 CALM      29.99S
GREENCASTLE +  PTCLDY    61  61 100 CALM      30.00R
LAFAYETTE      PTCLDY    61  58  90 E3        29.96S
TERRE HAUTE    CLOUDY    64  60  87 CALM      29.98S

$$

INZ030>032-037>040-046>048-054>057-064-065-311000-
CENTRAL INDIANA

CITY           SKY/WX    TMP DP  RH WIND       PRES   REMARKS
FRANKFORT +      N/A     63  49  61 CALM      30.00S
INDIANAPOLIS   MOCLDY    67  58  72 NE5       29.97R
-EAGLE CREEK   CLEAR     66  58  75 CALM      29.98R
KOKOMO *+      CLEAR     64  52  63 E5        29.98F
SHELBYVILLE    PTCLDY    64  57  78 CALM      29.98S

$$

INZ033-034-041-042-049-050-058-059-311000-
EAST CENTRAL INDIANA

CITY           SKY/WX    TMP DP  RH WIND       PRES   REMARKS
MUNCIE         CLEAR     64  57  78 CALM      29.99S

$$

INZ060-061-067>069-081>083-085>088-311000-
SOUTHWEST INDIANA

CITY           SKY/WX    TMP DP  RH WIND       PRES   REMARKS
EVANSVILLE     CLOUDY    64  61  90 CALM      29.97S
HUNTINGBURG *+ CLOUDY    63  59  88 CALM      29.98S

$$

INZ062-063-066-070>080-084-089>092-311000-
SOUTH CENTRAL AND SOUTHEAST INDIANA

CITY           SKY/WX    TMP DP  RH WIND       PRES   REMARKS
BLOOMINGTON    CLOUDY    63  59  87 CALM      29.99R
MADISON *+     CLOUDY    63  59  88 CALM      30.01R
SEYMOUR +      CLOUDY    64  61  88 CALM      29.98R

$$




USA.gov is the U.S. government's official web portal to all federal, state and local government web resources and services.